Location: Tel Aviv
(32.0670°N, 34.7670°E)
Time: 12:57:43
(UTC+03:00)

Explorer 11/Cluster Stage 4 - Pass Details

Date: 17 September 2024
Orbit: 464 x 1208 km, 28.8° (Epoch: 05 October)

Event Time Altitude Azimuth Distance (km) Brightness Sun altitude
Rises 04:15:54 0° 207° (SSW) 3,023 - -27.7°
Reaches altitude 10° 04:18:59 10° 185° (S) 2,257 - -27.1°
Exits shadow 04:20:55 15° 164° (SSE) 2,010 8.6 -26.7°
Maximum altitude 04:22:18 16° 147° (SSE) 1,998 8.7 -26.4°
Drops below altitude 10° 04:26:00 10° 110° (ESE) 2,589 9.8 -25.7°
Sets 04:29:53 0° 91° (E) 3,702 11.2 -24.9°
